ARIANE 5 DEB, 43384

Orbit data source: Space-Track

ARIANE 5 DEB, 43384 is space debris in HEO originally from a launch on Thu, 12 Jun 2008 UTC launched from the French Guiana (FRGUI). Debris objects in space refer to the collection of defunct objects orbiting the Earth. Examples of debris include non-operational satellites, rocket bodies, and fragments generated from explosions, collisions, or faulty payload assembly.

Loading next visibility...
Identifier
43384, 2008-030G
Orbit
HEO
Country
Flag of FRFR
Related business
Manufacturer
Thales Alenia
Mission
Spacecraft
Bus & Motor
Unknown
Mass
Unknown
Launch date (UTC)
2008-06-12 (17 years ago)
Launch vehicle
Unknown
Launch site
French Guiana (FRGUI)
Object type
Payload
Rocket body
Debris
Shape & HBR
Unknown shape, 1.1 m
Radar Cross Section
Medium (>0.1 m² and <1 m²)

Expand to show TLE details & history
Last TLE update: 19 hours ago

TLE from 19 hours ago
0 ARIANE 5 DEB
1 43384U 08030G   25288.47740306  .00000948  00000-0  23159-2 0  9992
2 43384   2.2706  12.9133 7202628 238.4019  31.9592  2.30637790140555
Epoch: 2025-10-15T11:27Z
TLE epoch observation values (Epoch: 2025-10-15T11:27:27.624Z)
Latitude
Longitude
176.25568°
Altitude
12,184.146 km
Speed
5.145 km/s
True Right ascension
00h 49m 29s
True Declination
0° 00' 00"
Sunlit
Object was in full shadow at epoch
Visualization orbit readout
Latitude
Unknown
Longitude
Unknown
Altitude
Unknown
Speed
Unknown
Apparent Right ascension
Unknown
Apparent Declination
Unknown
Sunlit
N/A
Visualization observer readout
Local Sidereal Time
01:37:03
Azimuth
Unknown
Elevation
Unknown
Doppler factor
Unknown
Orbital elements
Apogee altitude
35,258.363 km
Perigee altitude
392.502 km
Semi-major axis
24,203.57 km
Eccentricity
0.72026
Inclination
2.2706°
RAAN
12.9133°
Arg. of periapsis
238.4019°
True anomaly
121.01256°
Mean anomaly
31.9592°
Eccentric anomaly
70.9724°
Mean motion
0.5764 °/min
Orbital period
624.57 mins
BSTAR
0.0023159
Loading maneuver chart data...
Computing Atmospheric mass density...
Loading historical data...
Loading historical data...
Loading historical data...
Loading historical data...
Loading historical data...
Loading historical data...
Loading historical data...

Documentation

Showing up to 5 results
|